Location: Bowden
(51.9167°N, 114.0333°W)
Time: 11:29:53
(UTC+00:00)

Envisat - Pass Details

Date: 10 December 2021
Orbit: 764 x 766 km, 98.2° (Epoch: 28 January)

Event Time Altitude Azimuth Distance (km) Brightness Sun altitude
Rises 11:47:51 0° 22° (NNE) 3,247 6.6 -33.3°
Reaches altitude 10° 11:50:28 10° 33° (NNE) 2,315 5.9 -32.9°
Maximum altitude 11:54:52 29° 93° (E) 1,393 4.8 -32.3°
Drops below altitude 10° 11:59:14 10° 153° (SSE) 2,299 5.7 -31.6°
Sets 12:01:49 0° 164° (SSE) 3,220 6.4 -31.2°
